| time (UTC) | temp F | wind direction | speed MPH | gust MPH | rain 1hr in | rain 24hr in | rain mn in | humidity % | barometer mb |
| 20260509105022 | 73 | 248 | 1.0 | 7.0 | 0.00 | 0.00 | 0.00 | 62 | 1015.8 |
| 20260509104519 | 73 | 202 | 0.0 | 7.0 | 0.00 | 0.00 | 0.00 | 60 | 1015.8 |
| 20260509104017 | 72 | 251 | 2.0 | 7.0 | 0.00 | 0.00 | 0.00 | 59 | 1015.8 |
| 20260509103517 | 72 | 198 | 2.0 | 6.0 | 0.00 | 0.00 | 0.00 | 63 | 1015.9 |
| 20260509103017 | 72 | 196 | 1.0 | 4.0 | 0.00 | 0.00 | 0.00 | 59 | 1016.0 |
| 20260509102515 | 72 | 187 | 0.0 | 5.0 | 0.00 | 0.00 | 0.00 | 57 | 1016.0 |
| 20260509102015 | 72 | 161 | 1.0 | 5.0 | 0.00 | 0.00 | 0.00 | 59 | 1016.1 |
| 20260509101520 | 71 | 251 | 1.0 | 6.0 | 0.00 | 0.00 | 0.00 | 61 | 1016.1 |
| 20260509101013 | 71 | 202 | 3.0 | 6.0 | 0.00 | 0.00 | 0.00 | 60 | 1016.1 |
| 20260509100513 | 71 | 227 | 0.0 | 5.0 | 0.00 | 0.00 | 0.00 | 61 | 1016.2 |
| 20260509100013 | 72 | 234 | 2.0 | 5.0 | 0.00 | 0.00 | 0.00 | 61 | 1016.2 |
| 20260509095513 | 72 | 119 | 0.0 | 6.0 | 0.00 | 0.00 | 0.00 | 61 | 1016.2 |
| 20260509095013 | 72 | 187 | 1.0 | 6.0 | 0.00 | 0.00 | 0.00 | 60 | 1016.2 |
| 20260509094512 | 71 | 196 | 1.0 | 6.0 | 0.00 | 0.00 | 0.00 | 66 | 1016.3 |
| 20260509094011 | 71 | 205 | 0.0 | 6.0 | 0.00 | 0.00 | 0.00 | 60 | 1016.3 |
| 20260509093510 | 71 | 217 | 1.0 | 4.0 | 0.00 | 0.00 | 0.00 | 58 | 1016.3 |
| 20260509093018 | 70 | 194 | 1.0 | 4.0 | 0.00 | 0.00 | 0.00 | 63 | 1016.2 |
| 20260509092510 | 70 | 225 | 0.0 | 5.0 | 0.00 | 0.00 | 0.00 | 60 | 1016.2 |
| 20260509092009 | 70 | 244 | 1.0 | 5.0 | 0.00 | 0.00 | 0.00 | 60 | 1016.2 |
| 20260509091510 | 71 | 219 | 0.0 | 4.0 | 0.00 | 0.00 | 0.00 | 60 | 1016.3 |
| 20260509091009 | 70 | 223 | 0.0 | 3.0 | 0.00 | 0.00 | 0.00 | 65 | 1016.3 |
| 20260509090508 | 70 | 243 | 0.0 | 5.0 | 0.00 | 0.00 | 0.00 | 66 | 1016.3 |
| 20260509090009 | 69 | 243 | 3.0 | 5.0 | 0.00 | 0.00 | 0.00 | 66 | 1016.3 |
| 20260509085507 | 69 | 249 | 1.0 | 5.0 | 0.00 | 0.00 | 0.00 | 60 | 1016.3 |
| 20260509085007 | 70 | 210 | 1.0 | 5.0 | 0.00 | 0.00 | 0.00 | 63 | 1016.3 |
| 20260509084512 | 70 | 248 | 0.0 | 4.0 | 0.00 | 0.00 | 0.00 | 65 | 1016.3 |
| 20260509084004 | 70 | 248 | 1.0 | 4.0 | 0.00 | 0.00 | 0.00 | 61 | 1016.4 |
| 20260509083507 | 70 | 180 | 0.0 | 4.0 | 0.00 | 0.00 | 0.00 | 59 | 1016.3 |
| 20260509083002 | 70 | 62 | 0.0 | 4.0 | 0.00 | 0.00 | 0.00 | 59 | 1016.3 |
| 20260509082502 | 70 | 62 | 0.0 | 2.0 | 0.00 | 0.00 | 0.00 | 59 | 1016.3 |
| 20260509082001 | 70 | 62 | 0.0 | 2.0 | 0.00 | 0.00 | 0.00 | 60 | 1016.3 |
| 20260509081600 | 70 | 62 | 0.0 | 2.0 | 0.00 | 0.00 | 0.00 | 61 | 1016.4 |
| 20260509081059 | 70 | 62 | 0.0 | 2.0 | 0.00 | 0.00 | 0.00 | 60 | 1016.4 |
| 20260509080558 | 70 | 62 | 0.0 | 2.0 | 0.00 | 0.00 | 0.00 | 56 | 1016.3 |
| 20260509080058 | 70 | 62 | 0.0 | 2.0 | 0.00 | 0.00 | 0.00 | 60 | 1016.3 |
| 20260509075555 | 70 | 62 | 0.0 | 2.0 | 0.00 | 0.00 | 0.00 | 61 | 1016.3 |
| 20260509075055 | 70 | 62 | 0.0 | 2.0 | 0.00 | 0.00 | 0.00 | 61 | 1016.3 |
| 20260509074600 | 70 | 62 | 0.0 | 2.0 | 0.00 | 0.00 | 0.00 | 63 | 1016.4 |
| 20260509074052 | 69 | 60 | 0.0 | 2.0 | 0.00 | 0.00 | 0.00 | 63 | 1016.3 |
| 20260509073551 | 68 | 60 | 0.0 | 2.0 | 0.00 | 0.00 | 0.00 | 64 | 1016.3 |
| 20260509073050 | 68 | 60 | 0.0 | 3.0 | 0.00 | 0.00 | 0.00 | 64 | 1016.3 |
| 20260509072550 | 67 | 60 | 0.0 | 3.0 | 0.00 | 0.00 | 0.00 | 65 | 1016.2 |
| 20260509072046 | 67 | 61 | 0.0 | 2.0 | 0.00 | 0.00 | 0.00 | 67 | 1016.3 |
| 20260509071548 | 66 | 61 | 1.0 | 4.0 | 0.00 | 0.00 | 0.00 | 68 | 1016.3 |
| 20260509071046 | 66 | 65 | 1.0 | 4.0 | 0.00 | 0.00 | 0.00 | 68 | 1016.3 |
| 20260509070544 | 66 | 69 | 1.0 | 3.0 | 0.00 | 0.00 | 0.00 | 69 | 1016.3 |
| 20260509070046 | 65 | 69 | 0.0 | 2.0 | 0.00 | 0.00 | 0.00 | 70 | 1016.3 |
| 20260509065541 | 64 | 69 | 1.0 | 2.0 | 0.00 | 0.00 | 0.00 | 71 | 1016.3 |
| 20260509065039 | 64 | 69 | 0.0 | 3.0 | 0.00 | 0.00 | 0.00 | 71 | 1016.3 |
| 20260509064538 | 63 | 69 | 1.0 | 3.0 | 0.00 | 0.00 | 0.00 | 72 | 1016.2 |
| 20260509064038 | 63 | 69 | 2.0 | 3.0 | 0.00 | 0.00 | 0.00 | 70 | 1016.3 |
| 20260509063537 | 63 | 63 | 0.0 | 3.0 | 0.00 | 0.00 | 0.00 | 71 | 1016.3 |
| 20260509063036 | 63 | 63 | 1.0 | 2.0 | 0.00 | 0.00 | 0.00 | 72 | 1016.3 |
| 20260509062535 | 63 | 63 | 0.0 | 3.0 | 0.00 | 0.00 | 0.00 | 73 | 1016.4 |
| 20260509062035 | 62 | 63 | 0.0 | 3.0 | 0.00 | 0.00 | 0.00 | 73 | 1016.4 |
| 20260509061532 | 62 | 67 | 1.0 | 2.0 | 0.00 | 0.00 | 0.00 | 75 | 1016.4 |
| 20260509061031 | 62 | 35 | 0.0 | 2.0 | 0.00 | 0.00 | 0.00 | 77 | 1016.4 |
| 20260509060534 | 61 | 15 | 0.0 | 2.0 | 0.00 | 0.00 | 0.00 | 78 | 1016.4 |
| 20260509060028 | 60 | 15 | 0.0 | 3.0 | 0.00 | 0.00 | 0.00 | 78 | 1016.3 |
| 20260509055529 | 60 | 11 | 1.0 | 3.0 | 0.00 | 0.00 | 0.00 | 78 | 1016.4 |
| 20260509055025 | 59 | 5 | 1.0 | 2.0 | 0.00 | 0.00 | 0.00 | 79 | 1016.4 |
| 20260509054533 | 59 | 5 | 0.0 | 2.0 | 0.00 | 0.00 | 0.00 | 79 | 1016.3 |
| 20260509054022 | 58 | 5 | 0.0 | 2.0 | 0.00 | 0.00 | 0.00 | 81 | 1016.3 |
| 20260509053525 | 58 | 5 | 0.0 | 3.0 | 0.00 | 0.00 | 0.00 | 81 | 1016.2 |
| 20260509053052 | 57 | 9 | 1.0 | 3.0 | 0.00 | 0.00 | 0.00 | 82 | 1016.2 |
| 20260509052520 | 57 | 360 | 0.0 | 2.0 | 0.00 | 0.00 | 0.00 | 83 | 1016.2 |
| 20260509052017 | 56 | 318 | 0.0 | 2.0 | 0.00 | 0.00 | 0.00 | 83 | 1016.2 |
| 20260509051521 | 56 | 318 | 1.0 | 2.0 | 0.00 | 0.00 | 0.00 | 83 | 1016.3 |
| 20260509051016 | 56 | 315 | 0.0 | 2.0 | 0.00 | 0.00 | 0.00 | 83 | 1016.3 |
| 20260509050514 | 56 | 314 | 0.0 | 2.0 | 0.00 | 0.00 | 0.00 | 83 | 1016.3 |
| 20260509050033 | 55 | 314 | 0.0 | 2.0 | 0.00 | 0.00 | 0.00 | 84 | 1016.3 |
| 20260509045512 | 55 | 314 | 0.0 | 2.0 | 0.00 | 0.00 | 0.00 | 84 | 1016.3 |
| 20260509045011 | 54 | 314 | 0.0 | 2.0 | 0.00 | 0.00 | 0.00 | 84 | 1016.2 |
| 20260509044515 | 54 | 314 | 0.0 | 2.0 | 0.00 | 0.00 | 0.00 | 84 | 1016.2 |
| 20260509044008 | 53 | 314 | 0.0 | 2.0 | 0.00 | 0.00 | 0.00 | 85 | 1016.2 |
| 20260509043507 | 53 | 314 | 0.0 | 2.0 | 0.00 | 0.00 | 0.00 | 85 | 1016.2 |
| 20260509043007 | 53 | 314 | 0.0 | 2.0 | 0.00 | 0.00 | 0.00 | 85 | 1016.2 |
| 20260509042505 | 53 | 314 | 0.0 | 2.0 | 0.00 | 0.00 | 0.00 | 85 | 1016.2 |
| 20260509042005 | 52 | 314 | 0.0 | 2.0 | 0.00 | 0.00 | 0.00 | 86 | 1016.1 |
| 20260509041505 | 52 | 314 | 0.0 | 1.0 | 0.00 | 0.00 | 0.00 | 86 | 1016.0 |
| 20260509041003 | 52 | 314 | 0.0 | 2.0 | 0.00 | 0.00 | 0.00 | 86 | 1016.0 |
| 20260509040506 | 52 | 314 | 0.0 | 2.0 | 0.00 | 0.00 | 0.00 | 86 | 1016.0 |
| 20260509040002 | 52 | 314 | 0.0 | 2.0 | 0.00 | 0.00 | 0.00 | 86 | 1015.9 |
| 20260509035502 | 52 | 314 | 0.0 | 2.0 | 0.00 | 0.00 | 0.00 | 86 | 1015.9 |
| 20260509035004 | 52 | 314 | 0.0 | 2.0 | 0.00 | 0.00 | 0.00 | 86 | 1015.9 |
| 20260509034501 | 52 | 314 | 0.0 | 2.0 | 0.00 | 0.00 | 0.00 | 86 | 1015.9 |
| 20260509034001 | 52 | 314 | 0.0 | 2.0 | 0.00 | 0.00 | 0.00 | 87 | 1015.9 |
| 20260509033600 | 52 | 314 | 0.0 | 2.0 | 0.00 | 0.00 | 0.00 | 86 | 1015.8 |
| 20260509033104 | 52 | 314 | 0.0 | 2.0 | 0.00 | 0.00 | 0.00 | 86 | 1015.8 |
| 20260509032604 | 52 | 314 | 0.0 | 2.0 | 0.00 | 0.00 | 0.00 | 86 | 1015.8 |
| 20260509032059 | 52 | 314 | 0.0 | 2.0 | 0.00 | 0.00 | 0.00 | 86 | 1015.8 |
| 20260509031558 | 52 | 314 | 0.0 | 2.0 | 0.00 | 0.00 | 0.00 | 86 | 1015.8 |
| 20260509031058 | 53 | 314 | 0.0 | 2.0 | 0.00 | 0.00 | 0.00 | 86 | 1015.8 |
| 20260509030558 | 53 | 314 | 0.0 | 2.0 | 0.00 | 0.00 | 0.00 | 86 | 1015.8 |
| 20260509030109 | 53 | 314 | 0.0 | 1.0 | 0.00 | 0.00 | 0.00 | 86 | 1015.8 |
| 20260509025556 | 53 | 314 | 0.0 | 2.0 | 0.00 | 0.00 | 0.00 | 86 | 1015.8 |
| 20260509025057 | 53 | 314 | 0.0 | 2.0 | 0.00 | 0.00 | 0.00 | 86 | 1015.8 |
| 20260509024557 | 53 | 314 | 0.0 | 2.0 | 0.00 | 0.00 | 0.00 | 86 | 1015.8 |
| 20260509024057 | 53 | 314 | 0.0 | 2.0 | 0.00 | 0.00 | 0.00 | 86 | 1015.8 |
| 20260509023558 | 53 | 314 | 0.0 | 0.0 | 0.00 | 0.00 | 0.00 | 87 | 1015.9 |
| 20260509023056 | 53 | 314 | 0.0 | 1.0 | 0.00 | 0.00 | 0.00 | 87 | 1015.9 |
| 20260509022556 | 53 | 314 | 0.0 | 2.0 | 0.00 | 0.00 | 0.00 | 87 | 1015.9 |
| 20260509022055 | 53 | 314 | 0.0 | 2.0 | 0.00 | 0.00 | 0.00 | 87 | 1015.8 |
| 20260509021559 | 53 | 314 | 0.0 | 2.0 | 0.00 | 0.00 | 0.00 | 87 | 1015.9 |
| 20260509021054 | 53 | 314 | 0.0 | 2.0 | 0.00 | 0.00 | 0.00 | 87 | 1015.9 |
| 20260509020554 | 53 | 314 | 0.0 | 2.0 | 0.00 | 0.00 | 0.00 | 87 | 1015.9 |
| 20260509020054 | 53 | 314 | 0.0 | 1.0 | 0.00 | 0.00 | 0.00 | 87 | 1015.8 |
| 20260509015554 | 53 | 314 | 0.0 | 1.0 | 0.00 | 0.00 | 0.00 | 87 | 1015.8 |
| 20260509015053 | 53 | 314 | 0.0 | 0.0 | 0.00 | 0.00 | 0.00 | 87 | 1015.8 |
| 20260509014552 | 54 | 314 | 0.0 | 0.0 | 0.00 | 0.00 | 0.00 | 87 | 1015.8 |
| 20260509014051 | 54 | 314 | 0.0 | 2.0 | 0.00 | 0.00 | 0.00 | 87 | 1015.7 |
| 20260509013550 | 54 | 314 | 0.0 | 2.0 | 0.00 | 0.00 | 0.00 | 87 | 1015.7 |
| 20260509013107 | 54 | 314 | 0.0 | 2.0 | 0.00 | 0.00 | 0.00 | 87 | 1015.7 |
| 20260509012550 | 54 | 314 | 0.0 | 2.0 | 0.00 | 0.00 | 0.00 | 87 | 1015.7 |
| 20260509012051 | 55 | 314 | 0.0 | 2.0 | 0.00 | 0.00 | 0.00 | 87 | 1015.7 |
| 20260509011559 | 55 | 314 | 0.0 | 2.0 | 0.00 | 0.00 | 0.00 | 87 | 1015.7 |
| 20260509011048 | 55 | 314 | 0.0 | 0.0 | 0.00 | 0.00 | 0.00 | 87 | 1015.6 |
| 20260509010548 | 55 | 314 | 0.0 | 0.0 | 0.00 | 0.00 | 0.00 | 87 | 1015.7 |
| 20260509010048 | 55 | 314 | 0.0 | 0.0 | 0.00 | 0.00 | 0.00 | 87 | 1015.7 |
| 20260509005548 | 55 | 314 | 0.0 | 0.0 | 0.00 | 0.00 | 0.00 | 87 | 1015.7 |
| 20260509005049 | 55 | 314 | 0.0 | 2.0 | 0.00 | 0.00 | 0.00 | 87 | 1015.7 |
| 20260509004548 | 55 | 314 | 1.0 | 2.0 | 0.00 | 0.00 | 0.00 | 87 | 1015.6 |
| 20260509004047 | 55 | 313 | 1.0 | 2.0 | 0.00 | 0.00 | 0.00 | 86 | 1015.6 |
| 20260509003550 | 55 | 290 | 0.0 | 2.0 | 0.00 | 0.00 | 0.00 | 86 | 1015.7 |
| 20260509003107 | 55 | 290 | 0.0 | 2.0 | 0.00 | 0.00 | 0.00 | 86 | 1015.6 |
| 20260509002546 | 55 | 283 | 0.0 | 2.0 | 0.00 | 0.00 | 0.00 | 87 | 1015.6 |
| 20260509002045 | 55 | 269 | 1.0 | 2.0 | 0.00 | 0.00 | 0.00 | 87 | 1015.7 |
| 20260509001546 | 55 | 240 | 0.0 | 2.0 | 0.00 | 0.00 | 0.00 | 87 | 1015.7 |
| 20260509001048 | 55 | 240 | 0.0 | 2.0 | 0.00 | 0.00 | 0.00 | 87 | 1015.8 |
| 20260509000547 | 56 | 235 | 0.0 | 2.0 | 0.00 | 0.00 | 0.00 | 87 | 1015.8 |
| 20260509000054 | 56 | 235 | 0.0 | 2.0 | 0.00 | 0.00 | 0.00 | 87 | 1015.8 |
| 20260508235543 | 56 | 235 | 0.0 | 2.0 | 0.00 | 0.00 | 0.00 | 87 | 1015.8 |
| 20260508235043 | 56 | 235 | 0.0 | 2.0 | 0.00 | 0.00 | 0.00 | 86 | 1015.8 |
| 20260508234543 | 56 | 235 | 0.0 | 1.0 | 0.00 | 0.00 | 0.00 | 86 | 1015.8 |
| 20260508234042 | 56 | 235 | 0.0 | 2.0 | 0.00 | 0.00 | 0.00 | 86 | 1016.0 |
| 20260508233541 | 56 | 235 | 0.0 | 2.0 | 0.00 | 0.00 | 0.00 | 86 | 1015.9 |
| 20260508233041 | 56 | 235 | 0.0 | 2.0 | 0.00 | 0.00 | 0.00 | 86 | 1015.9 |
| 20260508232540 | 56 | 235 | 0.0 | 2.0 | 0.00 | 0.00 | 0.00 | 86 | 1016.0 |
| 20260508232040 | 56 | 235 | 0.0 | 2.0 | 0.00 | 0.00 | 0.00 | 87 | 1016.0 |
| 20260508231546 | 56 | 235 | 0.0 | 2.0 | 0.00 | 0.00 | 0.00 | 84 | 1016.0 |
| 20260508231039 | 56 | 235 | 0.0 | 2.0 | 0.00 | 0.00 | 0.00 | 84 | 1016.0 |
| 20260508230538 | 56 | 235 | 0.0 | 2.0 | 0.00 | 0.00 | 0.00 | 84 | 1016.1 |
| 20260508230039 | 56 | 235 | 0.0 | 0.0 | 0.00 | 0.00 | 0.00 | 84 | 1016.0 |
| 20260508225538 | 56 | 235 | 0.0 | 2.0 | 0.00 | 0.00 | 0.00 | 84 | 1016.0 |
| 20260508225037 | 56 | 235 | 0.0 | 2.0 | 0.00 | 0.00 | 0.00 | 84 | 1016.0 |
| 20260508224542 | 56 | 235 | 0.0 | 2.0 | 0.00 | 0.00 | 0.00 | 84 | 1016.1 |
| 20260508224036 | 56 | 235 | 0.0 | 0.0 | 0.00 | 0.00 | 0.00 | 84 | 1016.0 |
| 20260508223536 | 57 | 235 | 0.0 | 0.0 | 0.00 | 0.00 | 0.00 | 84 | 1016.0 |
| 20260508223035 | 57 | 235 | 0.0 | 0.0 | 0.00 | 0.00 | 0.00 | 84 | 1016.0 |
| 20260508222533 | 57 | 235 | 0.0 | 0.0 | 0.00 | 0.00 | 0.00 | 83 | 1016.0 |
| 20260508222033 | 58 | 235 | 0.0 | 0.0 | 0.00 | 0.00 | 0.00 | 83 | 1015.9 |
| 20260508221532 | 58 | 235 | 0.0 | 0.0 | 0.00 | 0.00 | 0.00 | 83 | 1015.9 |
| 20260508221031 | 58 | 235 | 0.0 | 0.0 | 0.00 | 0.00 | 0.00 | 83 | 1015.9 |
| 20260508220531 | 58 | 235 | 0.0 | 0.0 | 0.00 | 0.00 | 0.00 | 83 | 1015.9 |
| 20260508220030 | 58 | 235 | 0.0 | 0.0 | 0.00 | 0.00 | 0.00 | 82 | 1015.9 |
| 20260508215535 | 58 | 235 | 0.0 | 0.0 | 0.00 | 0.00 | 0.00 | 82 | 1015.9 |
| 20260508215031 | 58 | 235 | 0.0 | 0.0 | 0.00 | 0.00 | 0.00 | 83 | 1015.9 |
| 20260508214530 | 58 | 235 | 0.0 | 0.0 | 0.00 | 0.00 | 0.00 | 83 | 1015.8 |
| 20260508214030 | 59 | 235 | 0.0 | 0.0 | 0.00 | 0.00 | 0.00 | 83 | 1015.8 |
| 20260508213529 | 59 | 235 | 0.0 | 0.0 | 0.00 | 0.00 | 0.00 | 83 | 1015.7 |
| 20260508213029 | 59 | 235 | 0.0 | 0.0 | 0.00 | 0.00 | 0.00 | 83 | 1015.7 |
| 20260508212529 | 59 | 235 | 0.0 | 0.0 | 0.00 | 0.00 | 0.00 | 83 | 1015.7 |
| 20260508212028 | 59 | 235 | 0.0 | 0.0 | 0.00 | 0.00 | 0.00 | 82 | 1015.6 |
| 20260508211530 | 59 | 235 | 0.0 | 0.0 | 0.00 | 0.00 | 0.00 | 81 | 1015.6 |
| 20260508211029 | 60 | 235 | 0.0 | 0.0 | 0.00 | 0.00 | 0.00 | 81 | 1015.5 |
| 20260508210528 | 60 | 235 | 0.0 | 0.0 | 0.00 | 0.00 | 0.00 | 80 | 1015.4 |
| 20260508210031 | 60 | 235 | 0.0 | 0.0 | 0.00 | 0.00 | 0.00 | 79 | 1015.4 |
| 20260508205527 | 60 | 235 | 0.0 | 0.0 | 0.00 | 0.00 | 0.00 | 79 | 1015.4 |
| 20260508205028 | 60 | 235 | 0.0 | 0.0 | 0.00 | 0.00 | 0.00 | 78 | 1015.4 |
| 20260508204528 | 61 | 235 | 0.0 | 0.0 | 0.00 | 0.00 | 0.00 | 78 | 1015.4 |
| 20260508204027 | 61 | 235 | 0.0 | 0.0 | 0.00 | 0.00 | 0.00 | 77 | 1015.4 |
| 20260508203527 | 61 | 235 | 0.0 | 0.0 | 0.00 | 0.00 | 0.00 | 77 | 1015.4 |
| 20260508203027 | 61 | 235 | 0.0 | 0.0 | 0.00 | 0.00 | 0.00 | 75 | 1015.4 |
| 20260508202527 | 62 | 235 | 0.0 | 0.0 | 0.00 | 0.00 | 0.00 | 76 | 1015.4 |
| 20260508202027 | 62 | 235 | 0.0 | 0.0 | 0.00 | 0.00 | 0.00 | 75 | 1015.3 |
| 20260508201527 | 62 | 235 | 0.0 | 0.0 | 0.00 | 0.00 | 0.00 | 75 | 1015.3 |
| 20260508201028 | 63 | 235 | 0.0 | 0.0 | 0.00 | 0.00 | 0.00 | 74 | 1015.3 |
| 20260508200526 | 63 | 235 | 0.0 | 0.0 | 0.00 | 0.00 | 0.00 | 74 | 1015.2 |
| 20260508200029 | 63 | 235 | 0.0 | 0.0 | 0.00 | 0.00 | 0.00 | 74 | 1015.1 |
| 20260508195526 | 63 | 235 | 0.0 | 0.0 | 0.00 | 0.00 | 0.00 | 74 | 1015.1 |
| 20260508195026 | 63 | 235 | 0.0 | 0.0 | 0.00 | 0.00 | 0.00 | 73 | 1015.0 |
| 20260508194526 | 64 | 235 | 0.0 | 2.0 | 0.00 | 0.00 | 0.00 | 73 | 1015.0 |
| 20260508194025 | 64 | 235 | 0.0 | 2.0 | 0.00 | 0.00 | 0.00 | 73 | 1014.9 |
| 20260508193525 | 64 | 235 | 0.0 | 2.0 | 0.00 | 0.00 | 0.00 | 73 | 1014.8 |
| 20260508193026 | 64 | 235 | 0.0 | 2.0 | 0.00 | 0.00 | 0.00 | 72 | 1014.8 |
| 20260508192525 | 64 | 235 | 0.0 | 3.0 | 0.00 | 0.00 | 0.00 | 71 | 1014.7 |
| 20260508192025 | 65 | 235 | 1.0 | 4.0 | 0.00 | 0.00 | 0.00 | 71 | 1014.6 |
| 20260508191524 | 65 | 243 | 2.0 | 4.0 | 0.00 | 0.00 | 0.00 | 72 | 1014.5 |
| 20260508191024 | 65 | 246 | 0.0 | 5.0 | 0.00 | 0.00 | 0.00 | 72 | 1014.5 |
| 20260508190524 | 65 | 246 | 2.0 | 5.0 | 0.00 | 0.00 | 0.00 | 72 | 1014.4 |
| 20260508190036 | 65 | 236 | 2.0 | 3.0 | 0.00 | 0.00 | 0.00 | 73 | 1014.3 |
| 20260508185525 | 65 | 236 | 1.0 | 4.0 | 0.00 | 0.00 | 0.00 | 73 | 1014.3 |
| 20260508185024 | 65 | 242 | 2.0 | 5.0 | 0.00 | 0.00 | 0.00 | 73 | 1014.3 |
| 20260508184525 | 66 | 240 | 2.0 | 5.0 | 0.00 | 0.00 | 0.00 | 73 | 1014.2 |
| 20260508184025 | 66 | 232 | 0.0 | 2.0 | 0.00 | 0.00 | 0.00 | 73 | 1014.1 |
| 20260508183523 | 66 | 232 | 0.0 | 2.0 | 0.00 | 0.00 | 0.00 | 72 | 1014.1 |
| 20260508183024 | 66 | 232 | 0.0 | 2.0 | 0.00 | 0.00 | 0.00 | 71 | 1014.0 |
| 20260508182524 | 67 | 232 | 0.0 | 3.0 | 0.00 | 0.00 | 0.00 | 71 | 1013.9 |
| 20260508182023 | 67 | 227 | 1.0 | 3.0 | 0.00 | 0.00 | 0.00 | 71 | 1013.9 |
| 20260508181524 | 67 | 234 | 1.0 | 4.0 | 0.00 | 0.00 | 0.00 | 71 | 1013.9 |
| 20260508181023 | 67 | 223 | 2.0 | 4.0 | 0.00 | 0.00 | 0.00 | 70 | 1013.8 |
| 20260508180523 | 68 | 246 | 1.0 | 4.0 | 0.00 | 0.00 | 0.00 | 70 | 1013.7 |
| 20260508180025 | 68 | 244 | 1.0 | 4.0 | 0.00 | 0.00 | 0.00 | 68 | 1013.6 |
| 20260508175525 | 68 | 222 | 0.0 | 2.0 | 0.00 | 0.00 | 0.00 | 66 | 1013.5 |
| 20260508175022 | 68 | 222 | 0.0 | 2.0 | 0.00 | 0.00 | 0.00 | 63 | 1013.5 |
| 20260508174533 | 69 | 222 | 1.0 | 2.0 | 0.00 | 0.00 | 0.00 | 61 | 1013.5 |
| 20260508174026 | 69 | 223 | 0.0 | 0.0 | 0.00 | 0.00 | 0.00 | 60 | 1013.4 |
| 20260508173522 | 69 | 223 | 0.0 | 0.0 | 0.00 | 0.00 | 0.00 | 63 | 1013.4 |
| 20260508173021 | 69 | 223 | 0.0 | 0.0 | 0.00 | 0.00 | 0.00 | 63 | 1013.3 |
| 20260508172521 | 69 | 223 | 0.0 | 0.0 | 0.00 | 0.00 | 0.00 | 62 | 1013.2 |
| 20260508172021 | 70 | 223 | 0.0 | 1.0 | 0.00 | 0.00 | 0.00 | 58 | 1013.2 |
| 20260508171521 | 70 | 223 | 0.0 | 2.0 | 0.00 | 0.00 | 0.00 | 61 | 1013.2 |
| 20260508171021 | 70 | 223 | 0.0 | 2.0 | 0.00 | 0.00 | 0.00 | 59 | 1013.2 |
| 20260508170521 | 70 | 223 | 0.0 | 2.0 | 0.00 | 0.00 | 0.00 | 58 | 1013.2 |
| 20260508170021 | 71 | 223 | 0.0 | 2.0 | 0.00 | 0.00 | 0.00 | 55 | 1013.2 |
| 20260508165521 | 71 | 223 | 0.0 | 2.0 | 0.00 | 0.00 | 0.00 | 54 | 1013.1 |
| 20260508165020 | 71 | 223 | 0.0 | 2.0 | 0.00 | 0.00 | 0.00 | 55 | 1013.2 |
| 20260508164520 | 71 | 227 | 0.0 | 2.0 | 0.00 | 0.00 | 0.00 | 54 | 1013.2 |
| 20260508164020 | 71 | 227 | 1.0 | 2.0 | 0.00 | 0.00 | 0.00 | 51 | 1013.2 |
| 20260508163521 | 71 | 234 | 0.0 | 2.0 | 0.00 | 0.00 | 0.00 | 54 | 1013.1 |
| 20260508163036 | 71 | 233 | 0.0 | 2.0 | 0.00 | 0.00 | 0.00 | 54 | 1013.1 |
| 20260508162520 | 71 | 232 | 0.0 | 2.0 | 0.00 | 0.00 | 0.00 | 54 | 1013.2 |
| 20260508162021 | 71 | 232 | 0.0 | 2.0 | 0.00 | 0.00 | 0.00 | 55 | 1013.1 |
| 20260508161519 | 71 | 232 | 1.0 | 2.0 | 0.00 | 0.00 | 0.00 | 52 | 1013.1 |
| 20260508161019 | 72 | 244 | 0.0 | 4.0 | 0.00 | 0.00 | 0.00 | 51 | 1013.1 |
| 20260508160523 | 72 | 244 | 2.0 | 4.0 | 0.00 | 0.00 | 0.00 | 55 | 1013.1 |
| 20260508160024 | 72 | 221 | 0.0 | 3.0 | 0.00 | 0.00 | 0.00 | 50 | 1013.1 |
| 20260508155519 | 72 | 221 | 1.0 | 4.0 | 0.00 | 0.18 | 0.00 | 53 | 1013.0 |
| 20260508155019 | 72 | 229 | 0.0 | 4.0 | 0.00 | 0.18 | 0.00 | 54 | 1013.1 |
| 20260508154519 | 72 | 262 | 0.0 | 3.0 | 0.00 | 0.18 | 0.00 | 51 | 1013.1 |
| 20260508154017 | 72 | 261 | 0.0 | 3.0 | 0.00 | 0.18 | 0.00 | 54 | 1013.1 |
| 20260508153518 | 72 | 238 | 1.0 | 3.0 | 0.00 | 0.18 | 0.00 | 53 | 1013.1 |
| 20260508153026 | 73 | 239 | 0.0 | 2.0 | 0.00 | 0.18 | 0.00 | 51 | 1013.1 |
| 20260508152517 | 73 | 239 | 0.0 | 2.0 | 0.00 | 0.18 | 0.00 | 53 | 1013.1 |
| 20260508152017 | 72 | 239 | 0.0 | 4.0 | 0.00 | 0.18 | 0.00 | 52 | 1013.1 |
| 20260508151526 | 72 | 239 | 1.0 | 4.0 | 0.00 | 0.18 | 0.00 | 51 | 1013.1 |
| 20260508151024 | 72 | 236 | 0.0 | 3.0 | 0.00 | 0.18 | 0.00 | 49 | 1013.1 |
| 20260508150516 | 72 | 236 | 0.0 | 2.0 | 0.00 | 0.18 | 0.00 | 52 | 1013.1 |
| 20260508150016 | 72 | 236 | 0.0 | 4.0 | 0.00 | 0.18 | 0.00 | 51 | 1013.1 |
| 20260508145516 | 73 | 246 | 1.0 | 4.0 | 0.00 | 0.35 | 0.00 | 49 | 1013.2 |
| 20260508145015 | 74 | 229 | 0.0 | 3.0 | 0.00 | 0.35 | 0.00 | 53 | 1013.2 |
| 20260508144515 | 74 | 15 | 0.0 | 2.0 | 0.00 | 0.35 | 0.00 | 50 | 1013.3 |
| 20260508144015 | 74 | 15 | 0.0 | 2.0 | 0.00 | 0.35 | 0.00 | 49 | 1013.3 |
| 20260508143514 | 74 | 15 | 0.0 | 2.0 | 0.00 | 0.35 | 0.00 | 44 | 1013.3 |
| 20260508143014 | 74 | 287 | 0.0 | 2.0 | 0.00 | 0.35 | 0.00 | 48 | 1013.4 |
| 20260508142513 | 74 | 287 | 0.0 | 2.0 | 0.00 | 0.35 | 0.00 | 46 | 1013.4 |
| 20260508142013 | 73 | 287 | 0.0 | 2.0 | 0.00 | 0.35 | 0.00 | 49 | 1013.5 |
| 20260508141513 | 74 | 286 | 0.0 | 2.0 | 0.00 | 0.35 | 0.00 | 47 | 1013.6 |
| 20260508141011 | 74 | 287 | 0.0 | 2.0 | 0.00 | 0.35 | 0.00 | 47 | 1013.6 |
| 20260508140517 | 74 | 284 | 0.0 | 2.0 | 0.00 | 0.35 | 0.00 | 46 | 1013.6 |
| 20260508140010 | 73 | 284 | 0.0 | 3.0 | 0.00 | 0.35 | 0.00 | 46 | 1013.6 |
| 20260508135512 | 73 | 281 | 0.0 | 3.0 | 0.00 | 0.35 | 0.00 | 50 | 1013.7 |
| 20260508135013 | 73 | 292 | 0.0 | 3.0 | 0.00 | 0.35 | 0.00 | 51 | 1013.7 |
| 20260508134508 | 73 | 265 | 0.0 | 4.0 | 0.00 | 0.35 | 0.00 | 52 | 1013.8 |
| 20260508134008 | 73 | 279 | 1.0 | 4.0 | 0.00 | 0.35 | 0.00 | 48 | 1013.9 |
| 20260508133511 | 73 | 141 | 0.0 | 4.0 | 0.00 | 0.35 | 0.00 | 50 | 1014.0 |
| 20260508133007 | 72 | 240 | 0.0 | 4.0 | 0.00 | 0.35 | 0.00 | 53 | 1014.1 |
| 20260508132506 | 72 | 244 | 1.0 | 4.0 | 0.00 | 0.35 | 0.00 | 54 | 1014.1 |
| 20260508132005 | 72 | 290 | 1.0 | 4.0 | 0.00 | 0.35 | 0.00 | 54 | 1014.1 |
| 20260508131507 | 72 | 234 | 1.0 | 4.0 | 0.00 | 0.35 | 0.00 | 56 | 1014.1 |
| 20260508131004 | 72 | 210 | 1.0 | 4.0 | 0.00 | 0.35 | 0.00 | 60 | 1014.3 |
| 20260508130503 | 71 | 228 | 2.0 | 6.0 | 0.00 | 0.35 | 0.00 | 55 | 1014.3 |
| 20260508130002 | 73 | 224 | 0.0 | 2.0 | 0.00 | 0.35 | 0.00 | 56 | 1014.3 |
| 20260508125504 | 73 | 74 | 0.0 | 3.0 | 0.00 | 0.35 | 0.00 | 58 | 1014.4 |
| 20260508125002 | 72 | 79 | 0.0 | 3.0 | 0.00 | 0.35 | 0.00 | 56 | 1014.3 |
| 20260508124502 | 71 | 283 | 0.0 | 4.0 | 0.00 | 0.35 | 0.00 | 59 | 1014.4 |
| 20260508124002 | 72 | 260 | 1.0 | 4.0 | 0.00 | 0.35 | 0.00 | 55 | 1014.4 |
| 20260508123502 | 72 | 233 | 0.0 | 3.0 | 0.00 | 0.35 | 0.00 | 58 | 1014.5 |
| 20260508123000 | 73 | 232 | 0.0 | 5.0 | 0.00 | 0.35 | 0.00 | 58 | 1014.5 |
| 20260508122600 | 72 | 284 | 1.0 | 5.0 | 0.00 | 0.35 | 0.00 | 55 | 1014.6 |
| 20260508122100 | 73 | 142 | 0.0 | 2.0 | 0.00 | 0.35 | 0.00 | 55 | 1014.6 |
| 20260508121559 | 72 | 259 | 0.0 | 3.0 | 0.00 | 0.35 | 0.00 | 56 | 1014.6 |
| 20260508121058 | 71 | 259 | 1.0 | 3.0 | 0.00 | 0.35 | 0.00 | 57 | 1014.6 |
| 20260508120557 | 70 | 236 | 0.0 | 6.0 | 0.00 | 0.35 | 0.00 | 63 | 1014.7 |
| 20260508120058 | 70 | 241 | 2.0 | 6.0 | 0.00 | 0.35 | 0.00 | 59 | 1014.7 |
| 20260508115558 | 71 | 248 | 3.0 | 5.0 | 0.00 | 0.35 | 0.00 | 61 | 1014.7 |
| 20260508115059 | 71 | 235 | 0.0 | 3.0 | 0.00 | 0.35 | 0.00 | 64 | 1014.7 |
| 20260508114557 | 71 | 229 | 0.0 | 4.0 | 0.00 | 0.35 | 0.00 | 58 | 1014.7 |
| 20260508114057 | 71 | 55 | 1.0 | 4.0 | 0.00 | 0.35 | 0.00 | 61 | 1014.8 |
| 20260508113557 | 71 | 329 | 0.0 | 3.0 | 0.00 | 0.35 | 0.00 | 56 | 1014.8 |
| 20260508113058 | 70 | 314 | 0.0 | 3.0 | 0.00 | 0.35 | 0.00 | 59 | 1014.9 |
| 20260508112555 | 69 | 240 | 0.0 | 3.0 | 0.00 | 0.35 | 0.00 | 62 | 1014.9 |
| 20260508112055 | 70 | 275 | 1.0 | 4.0 | 0.00 | 0.35 | 0.00 | 66 | 1014.9 |
| 20260508111556 | 69 | 225 | 2.0 | 7.0 | 0.00 | 0.35 | 0.00 | 66 | 1015.0 |
| 20260508111055 | 71 | 241 | 3.0 | 7.0 | 0.00 | 0.35 | 0.00 | 62 | 1014.9 |
| 20260508110555 | 69 | 300 | 1.0 | 4.0 | 0.00 | 0.35 | 0.00 | 62 | 1014.9 |
| 20260508110113 | 69 | 281 | 0.0 | 4.0 | 0.00 | 0.35 | 0.00 | 65 | 1015.0 |
| 20260508105554 | 70 | 285 | 0.0 | 4.0 | 0.00 | 0.35 | 0.00 | 61 | 1015.1 |